This is the latest recevied weather packets stored in our database for station/object K5GHS-1. If no packets are shown the sender has not sent any weather packets the latest 10 day(s).
| Time | Temp. | Humidity | Pressure | Rain* | Wind** | Luminosity | Snow |
|---|---|---|---|---|---|---|---|
| 1788638403 | 37.78° C | 40% | 1010.9 hPa | 0 mm | - | 571 W/m² | - |
| 1788638097 | 37.78° C | 40% | 1011.1 hPa | 0 mm | - | 587 W/m² | - |
| 1788637793 | 37.22° C | 41% | 1011.1 hPa | 0 mm | - | 599 W/m² | - |
| 1788637492 | 37.22° C | 42% | 1011.2 hPa | 0 mm | - | 593 W/m² | - |
| 1788637187 | 37.22° C | 42% | 1011.2 hPa | 0 mm | - | 599 W/m² | - |
| 1788636887 | 36.67° C | 42% | 1011.3 hPa | 0 mm | - | 583 W/m² | - |
| 1788636582 | 36.67° C | 43% | 1011.4 hPa | 0 mm | - | 583 W/m² | - |
| 1788636277 | 37.22° C | 42% | 1011.7 hPa | 0 mm | - | 571 W/m² | - |
| 1788635972 | 36.67° C | 43% | 1011.8 hPa | 0 mm | - | 609 W/m² | - |
| 1788635671 | 37.22° C | 43% | 1011.6 hPa | 0 mm | - | 633 W/m² | - |
| 1788635366 | 36.67° C | 44% | 1011.8 hPa | 0 mm | - | 638 W/m² | - |
| 1788635063 | 36.67° C | 44% | 1011.7 hPa | 0 mm | - | 613 W/m² | - |
| 1788634762 | 36.67° C | 44% | 1012.2 hPa | 0 mm | - | 638 W/m² | - |
| 1788634458 | 36.67° C | 45% | 1012.1 hPa | 0 mm | - | 621 W/m² | - |
| 1788634156 | 36.11° C | 46% | 1012.1 hPa | 0 mm | - | 680 W/m² | - |
| 1788633851 | 36.11° C | 47% | 1012.2 hPa | 0 mm | - | 714 W/m² | - |
| 1788633549 | 36.11° C | 47% | 1012.3 hPa | 0 mm | - | 689 W/m² | - |
| 1788633250 | 36.11° C | 47% | 1012.2 hPa | 0 mm | - | 694 W/m² | - |
| 1788632940 | 36.11° C | 48% | 1012.6 hPa | 0 mm | - | 672 W/m² | - |
| 1788632639 | 36.67° C | 47% | 1012.6 hPa | 0 mm | - | 636 W/m² | - |
| 1788632335 | 36.67° C | 47% | 1012.5 hPa | 0 mm | - | 650 W/m² | - |
| 1788632035 | 36.11° C | 47% | 1012.5 hPa | 0 mm | - | 182 W/m² | - |
| 1788631734 | 36.11° C | 48% | 1012.4 hPa | 0 mm | - | 704 W/m² | - |
| 1788631448 | 35.56° C | 48% | 1012.8 hPa | 0 mm | - | 707 W/m² | - |
| 1788631123 | 35° C | 49% | 1012.7 hPa | 0 mm | - | 691 W/m² | - |
* Rain latest hour (hover to see other rain measurements)
** Current wind speed in m/s (hover to see current wind gust speed)